Year,Month,Day,Hour,Minute,Value (Times are PST for temperature in C)
2019,10,01,00,00,5.10
2019,10,01,00,01,5.10
2019,10,01,00,02,5.10
2019,10,01,00,03,5.20
2019,10,01,00,04,5.20
2019,10,01,00,05,5.20
2019,10,01,00,06,5.20
2019,10,01,00,07,5.20
2019,10,01,00,08,5.20
2019,10,01,00,09,5.20
2019,10,01,00,10,5.20
2019,10,01,00,11,5.20
2019,10,01,00,12,5.20
2019,10,01,00,13,5.30
2019,10,01,00,14,5.30
2019,10,01,00,15,5.20
2019,10,01,00,16,5.20
2019,10,01,00,17,5.20
2019,10,01,00,18,5.20
2019,10,01,00,19,5.20
2019,10,01,00,20,5.20
2019,10,01,00,21,5.20
2019,10,01,00,22,5.10
2019,10,01,00,23,5.10
2019,10,01,00,24,5.00
2019,10,01,00,25,5.00
2019,10,01,00,26,5.00
2019,10,01,00,27,5.10
2019,10,01,00,28,5.10
2019,10,01,00,29,5.10
2019,10,01,00,30,5.10
2019,10,01,00,31,5.10
2019,10,01,00,32,5.10
2019,10,01,00,33,5.10
2019,10,01,00,34,5.10
2019,10,01,00,35,5.10
2019,10,01,00,36,5.10
2019,10,01,00,37,5.10
2019,10,01,00,38,5.20
2019,10,01,00,39,5.20
2019,10,01,00,40,5.20
2019,10,01,00,41,5.20
2019,10,01,00,42,5.20
2019,10,01,00,43,5.20
2019,10,01,00,44,5.20
2019,10,01,00,45,5.20
2019,10,01,00,46,5.20
2019,10,01,00,47,5.20
2019,10,01,00,48,5.20
2019,10,01,00,49,5.20
2019,10,01,00,50,5.20
2019,10,01,00,51,5.20
2019,10,01,00,52,5.20
2019,10,01,00,53,5.20
2019,10,01,00,54,5.20
2019,10,01,00,55,5.20
2019,10,01,00,56,5.20
2019,10,01,00,57,5.20
2019,10,01,00,58,5.10
2019,10,01,00,59,5.10
2019,10,01,01,00,5.10
2019,10,01,01,01,5.20
2019,10,01,01,02,5.20
2019,10,01,01,03,5.10
2019,10,01,01,04,5.10
2019,10,01,01,05,5.10
2019,10,01,01,06,5.10
2019,10,01,01,07,5.20
2019,10,01,01,08,5.20
2019,10,01,01,09,5.20
2019,10,01,01,10,5.20
2019,10,01,01,11,5.20
2019,10,01,01,12,5.20
2019,10,01,01,13,5.20
2019,10,01,01,14,5.20
2019,10,01,01,15,5.20
2019,10,01,01,16,5.20
2019,10,01,01,17,5.10
2019,10,01,01,18,5.10
2019,10,01,01,19,5.10
2019,10,01,01,20,5.10
2019,10,01,01,21,5.10
2019,10,01,01,22,5.10
2019,10,01,01,23,5.10
2019,10,01,01,24,5.10
2019,10,01,01,25,5.10
2019,10,01,01,26,5.10
2019,10,01,01,27,5.10
2019,10,01,01,28,5.10
2019,10,01,01,29,5.10
2019,10,01,01,30,5.10
2019,10,01,01,31,5.10
2019,10,01,01,32,5.10
2019,10,01,01,33,5.10
2019,10,01,01,34,5.10
2019,10,01,01,35,5.10
2019,10,01,01,36,5.10
2019,10,01,01,37,5.10
2019,10,01,01,38,5.10
2019,10,01,01,39,5.00
2019,10,01,01,40,5.00
2019,10,01,01,41,4.90
2019,10,01,01,42,4.90
2019,10,01,01,43,4.90
2019,10,01,01,44,4.90
2019,10,01,01,45,4.90
2019,10,01,01,46,4.90
2019,10,01,01,47,4.90
2019,10,01,01,48,4.90
2019,10,01,01,49,4.90
2019,10,01,01,50,4.90
2019,10,01,01,51,4.90
2019,10,01,01,52,4.90
2019,10,01,01,53,4.90
2019,10,01,01,54,4.90
2019,10,01,01,55,4.90
2019,10,01,01,56,4.90
2019,10,01,01,57,4.90
2019,10,01,01,58,4.90
2019,10,01,01,59,4.80
2019,10,01,02,00,4.80
2019,10,01,02,01,4.80
2019,10,01,02,02,4.80
2019,10,01,02,03,4.70
2019,10,01,02,04,4.70
2019,10,01,02,05,4.70
2019,10,01,02,06,4.70
2019,10,01,02,07,4.70
2019,10,01,02,08,4.80
2019,10,01,02,09,4.80
2019,10,01,02,10,4.80
2019,10,01,02,11,4.80
2019,10,01,02,12,4.80
2019,10,01,02,13,4.90
2019,10,01,02,14,4.90
2019,10,01,02,15,4.90
2019,10,01,02,16,4.90
2019,10,01,02,17,4.90
2019,10,01,02,18,4.90
2019,10,01,02,19,4.90
2019,10,01,02,20,4.90
2019,10,01,02,21,4.90
2019,10,01,02,22,4.80
2019,10,01,02,23,4.80
2019,10,01,02,24,4.80
2019,10,01,02,25,4.70
2019,10,01,02,26,4.70
2019,10,01,02,27,4.70
2019,10,01,02,28,4.70
2019,10,01,02,29,4.70
2019,10,01,02,30,4.70
2019,10,01,02,31,4.70
2019,10,01,02,32,4.70
2019,10,01,02,33,4.70
2019,10,01,02,34,4.70
2019,10,01,02,35,4.70
2019,10,01,02,36,4.60
2019,10,01,02,37,4.60
2019,10,01,02,38,4.60
2019,10,01,02,39,4.60
2019,10,01,02,40,4.60
2019,10,01,02,41,4.70
2019,10,01,02,42,4.70
2019,10,01,02,43,4.70
2019,10,01,02,44,4.70
2019,10,01,02,45,4.70
2019,10,01,02,46,4.70
2019,10,01,02,47,4.70
2019,10,01,02,48,4.70
2019,10,01,02,49,4.70
2019,10,01,02,50,4.70
2019,10,01,02,51,4.70
2019,10,01,02,52,4.70
2019,10,01,02,53,4.70
2019,10,01,02,54,4.70
2019,10,01,02,55,4.60
2019,10,01,02,56,4.60
2019,10,01,02,57,4.60
2019,10,01,02,58,4.60
2019,10,01,02,59,4.60
2019,10,01,03,00,4.60
2019,10,01,03,01,4.60
2019,10,01,03,02,4.70
2019,10,01,03,03,4.70
2019,10,01,03,04,4.70
2019,10,01,03,05,4.70
2019,10,01,03,06,4.70
2019,10,01,03,07,4.70
2019,10,01,03,08,4.70
2019,10,01,03,09,4.70
2019,10,01,03,10,4.70
2019,10,01,03,11,4.80
2019,10,01,03,12,4.70
2019,10,01,03,13,4.70
2019,10,01,03,14,4.70
2019,10,01,03,15,4.70
2019,10,01,03,16,4.80
2019,10,01,03,17,4.80
2019,10,01,03,18,4.80
2019,10,01,03,19,4.80
2019,10,01,03,20,4.80
2019,10,01,03,21,4.90
2019,10,01,03,22,4.90
2019,10,01,03,23,4.90
2019,10,01,03,24,4.90
2019,10,01,03,25,4.90
2019,10,01,03,26,4.80
2019,10,01,03,27,4.80
2019,10,01,03,28,4.80
2019,10,01,03,29,4.80
2019,10,01,03,30,4.80
2019,10,01,03,31,4.70
2019,10,01,03,32,4.70
2019,10,01,03,33,4.70
2019,10,01,03,34,4.70
2019,10,01,03,35,4.70
2019,10,01,03,36,4.70
2019,10,01,03,37,4.60
2019,10,01,03,38,4.60
2019,10,01,03,39,4.60
2019,10,01,03,40,4.60
2019,10,01,03,41,4.60
2019,10,01,03,42,4.60
2019,10,01,03,43,4.60
2019,10,01,03,44,4.60
2019,10,01,03,45,4.60
2019,10,01,03,46,4.60
2019,10,01,03,47,4.50
2019,10,01,03,48,4.50
2019,10,01,03,49,4.50
2019,10,01,03,50,4.50
2019,10,01,03,51,4.50
2019,10,01,03,52,4.50
2019,10,01,03,53,4.50
2019,10,01,03,54,4.60
2019,10,01,03,55,4.60
2019,10,01,03,56,4.60
2019,10,01,03,57,4.50
2019,10,01,03,58,4.50
2019,10,01,03,59,4.40
2019,10,01,04,00,4.40
2019,10,01,04,01,4.40
2019,10,01,04,02,4.40
2019,10,01,04,03,4.40
2019,10,01,04,04,4.40
2019,10,01,04,05,4.40
2019,10,01,04,06,4.40
2019,10,01,04,07,4.40
2019,10,01,04,08,4.40
2019,10,01,04,09,4.30
2019,10,01,04,10,4.30
2019,10,01,04,11,4.30
2019,10,01,04,12,4.30
2019,10,01,04,13,4.30
2019,10,01,04,14,4.30
2019,10,01,04,15,4.30
2019,10,01,04,16,4.30
2019,10,01,04,17,4.30
2019,10,01,04,18,4.30
2019,10,01,04,19,4.30
2019,10,01,04,20,4.30
2019,10,01,04,21,4.30
2019,10,01,04,22,4.30
2019,10,01,04,23,4.40
2019,10,01,04,24,4.40
2019,10,01,04,25,4.40
2019,10,01,04,26,4.40
2019,10,01,04,27,4.40
2019,10,01,04,28,4.40
2019,10,01,04,29,4.40
2019,10,01,04,30,4.40
2019,10,01,04,31,4.50
2019,10,01,04,32,4.50
2019,10,01,04,33,4.50
2019,10,01,04,34,4.50
2019,10,01,04,35,4.60
2019,10,01,04,36,4.60
2019,10,01,04,37,4.60
2019,10,01,04,38,4.60
2019,10,01,04,39,4.60
2019,10,01,04,40,4.60
2019,10,01,04,41,4.60
2019,10,01,04,42,4.60
2019,10,01,04,43,4.60
2019,10,01,04,44,4.60
2019,10,01,04,45,4.60
2019,10,01,04,46,4.70
2019,10,01,04,47,4.70
2019,10,01,04,48,4.70
2019,10,01,04,49,4.70
2019,10,01,04,50,4.70
2019,10,01,04,51,4.70
2019,10,01,04,52,4.70
2019,10,01,04,53,4.70
2019,10,01,04,54,4.70
2019,10,01,04,55,4.70
2019,10,01,04,56,4.70
2019,10,01,04,57,4.70
2019,10,01,04,58,4.70
2019,10,01,04,59,4.70
2019,10,01,05,00,4.70
2019,10,01,05,01,4.70
2019,10,01,05,02,4.70
2019,10,01,05,03,4.70
2019,10,01,05,04,4.70
2019,10,01,05,05,4.70
2019,10,01,05,06,4.70
2019,10,01,05,07,4.70
2019,10,01,05,08,4.70
2019,10,01,05,09,4.70
2019,10,01,05,10,4.70
2019,10,01,05,11,4.70
2019,10,01,05,12,4.60
2019,10,01,05,13,4.60
2019,10,01,05,14,4.70
2019,10,01,05,15,4.60
2019,10,01,05,16,4.70
2019,10,01,05,17,4.70
2019,10,01,05,18,4.70
2019,10,01,05,19,4.70
2019,10,01,05,20,4.70
2019,10,01,05,21,4.70
2019,10,01,05,22,4.70
2019,10,01,05,23,4.70
2019,10,01,05,24,4.70
2019,10,01,05,25,4.70
2019,10,01,05,26,4.70
2019,10,01,05,27,4.80
2019,10,01,05,28,4.80
2019,10,01,05,29,4.80
2019,10,01,05,30,4.80
2019,10,01,05,31,4.80
2019,10,01,05,32,4.80
2019,10,01,05,33,4.80
2019,10,01,05,34,4.80
2019,10,01,05,35,4.90
2019,10,01,05,36,5.00
2019,10,01,05,37,5.20
2019,10,01,05,38,5.20
2019,10,01,05,39,5.30
2019,10,01,05,40,5.40
2019,10,01,05,41,5.40
2019,10,01,05,42,5.30
2019,10,01,05,43,5.30
2019,10,01,05,44,5.20
2019,10,01,05,45,5.20
2019,10,01,05,46,5.20
2019,10,01,05,47,5.30
2019,10,01,05,48,5.30
2019,10,01,05,49,5.30
2019,10,01,05,50,5.30
2019,10,01,05,51,5.30
2019,10,01,05,52,5.40
2019,10,01,05,53,5.40
2019,10,01,05,54,5.30
2019,10,01,05,55,5.30
2019,10,01,05,56,5.30
2019,10,01,05,57,5.30
2019,10,01,05,58,5.30
2019,10,01,05,59,5.40
2019,10,01,06,00,5.40
2019,10,01,06,01,5.40
2019,10,01,06,02,5.40
2019,10,01,06,03,5.40
2019,10,01,06,04,5.40
2019,10,01,06,05,5.40
2019,10,01,06,06,5.40
2019,10,01,06,07,5.40
2019,10,01,06,08,5.40
2019,10,01,06,09,5.40
2019,10,01,06,10,5.40
2019,10,01,06,11,5.40
2019,10,01,06,12,5.40
2019,10,01,06,13,5.30
2019,10,01,06,14,5.30
2019,10,01,06,15,5.30
2019,10,01,06,16,5.30
2019,10,01,06,17,5.30
2019,10,01,06,18,5.30
2019,10,01,06,19,5.30
2019,10,01,06,20,5.20
2019,10,01,06,21,5.20
2019,10,01,06,22,5.20
2019,10,01,06,23,5.20
2019,10,01,06,24,5.20
2019,10,01,06,25,5.10
2019,10,01,06,26,5.10
2019,10,01,06,27,5.10
2019,10,01,06,28,5.10
2019,10,01,06,29,5.10
2019,10,01,06,30,5.00
2019,10,01,06,31,5.10
2019,10,01,06,32,5.10
2019,10,01,06,33,5.10
2019,10,01,06,34,5.10
2019,10,01,06,35,5.10
2019,10,01,06,36,5.10
2019,10,01,06,37,5.10
2019,10,01,06,38,5.10
2019,10,01,06,39,5.10
2019,10,01,06,40,5.10
2019,10,01,06,41,5.10
2019,10,01,06,42,5.20
2019,10,01,06,43,5.30
2019,10,01,06,44,5.30
2019,10,01,06,45,5.30
2019,10,01,06,46,5.40
2019,10,01,06,47,5.40
2019,10,01,06,48,5.40
2019,10,01,06,49,5.30
2019,10,01,06,50,5.30
2019,10,01,06,51,5.40
2019,10,01,06,52,5.30
2019,10,01,06,53,5.30
2019,10,01,06,54,5.30
2019,10,01,06,55,5.30
2019,10,01,06,56,5.30
2019,10,01,06,57,5.20
2019,10,01,06,58,5.20
2019,10,01,06,59,5.20
2019,10,01,07,00,5.30
2019,10,01,07,01,5.30
2019,10,01,07,02,5.30
2019,10,01,07,03,5.30
2019,10,01,07,04,5.30
2019,10,01,07,05,5.30
2019,10,01,07,06,5.30
2019,10,01,07,07,5.30
2019,10,01,07,08,5.30
2019,10,01,07,09,5.20
2019,10,01,07,10,5.20
2019,10,01,07,11,5.20
2019,10,01,07,12,5.20
2019,10,01,07,13,5.20
2019,10,01,07,14,5.20
2019,10,01,07,15,5.20
2019,10,01,07,16,5.30
2019,10,01,07,17,5.20
2019,10,01,07,18,5.20
2019,10,01,07,19,5.10
2019,10,01,07,20,5.10
2019,10,01,07,21,5.10
2019,10,01,07,22,5.10
2019,10,01,07,23,5.10
2019,10,01,07,24,5.10
2019,10,01,07,25,5.20
2019,10,01,07,26,5.20
2019,10,01,07,27,5.20
2019,10,01,07,28,5.20
2019,10,01,07,29,5.20
2019,10,01,07,30,5.20
2019,10,01,07,31,5.20
2019,10,01,07,32,5.20
2019,10,01,07,33,5.20
2019,10,01,07,34,5.30
2019,10,01,07,35,5.30
2019,10,01,07,36,5.30
2019,10,01,07,37,5.30
2019,10,01,07,38,5.30
2019,10,01,07,39,5.30
2019,10,01,07,40,5.30
2019,10,01,07,41,5.30
2019,10,01,07,42,5.30
2019,10,01,07,43,5.30
2019,10,01,07,44,5.30
2019,10,01,07,45,5.40
2019,10,01,07,46,5.40
2019,10,01,07,47,5.40
2019,10,01,07,48,5.40
2019,10,01,07,49,5.40
2019,10,01,07,50,5.50
2019,10,01,07,51,5.50
2019,10,01,07,52,5.50
2019,10,01,07,53,5.50
2019,10,01,07,54,5.50
2019,10,01,07,55,5.60
2019,10,01,07,56,5.60
2019,10,01,07,57,5.60
2019,10,01,07,58,5.70
2019,10,01,07,59,5.70
2019,10,01,08,00,5.70
2019,10,01,08,01,5.70
2019,10,01,08,02,5.80
2019,10,01,08,03,5.80
2019,10,01,08,04,5.90
2019,10,01,08,05,5.90
2019,10,01,08,06,6.00
2019,10,01,08,07,6.00
2019,10,01,08,08,6.00
2019,10,01,08,09,6.10
2019,10,01,08,10,6.10
2019,10,01,08,11,6.20
2019,10,01,08,12,6.20
2019,10,01,08,13,6.20
2019,10,01,08,14,6.30
2019,10,01,08,15,6.30
2019,10,01,08,16,6.30
2019,10,01,08,17,6.30
2019,10,01,08,18,6.30
2019,10,01,08,19,6.30
2019,10,01,08,20,6.40
2019,10,01,08,21,6.50
2019,10,01,08,22,6.50
2019,10,01,08,23,6.50
2019,10,01,08,24,6.60
2019,10,01,08,25,6.60
2019,10,01,08,26,6.60
2019,10,01,08,27,6.70
2019,10,01,08,28,6.70
2019,10,01,08,29,6.70
2019,10,01,08,30,6.80
2019,10,01,08,31,6.80
2019,10,01,08,32,6.80
2019,10,01,08,33,6.90
2019,10,01,08,34,6.90
2019,10,01,08,35,7.00
2019,10,01,08,36,7.10
2019,10,01,08,37,7.10
2019,10,01,08,38,7.20
2019,10,01,08,39,7.20
2019,10,01,08,40,7.20
2019,10,01,08,41,7.20
2019,10,01,08,42,7.30
2019,10,01,08,43,7.30
2019,10,01,08,44,7.30
2019,10,01,08,45,7.40
2019,10,01,08,46,7.40
2019,10,01,08,47,7.50
2019,10,01,08,48,7.50
2019,10,01,08,49,7.50
2019,10,01,08,50,7.60
2019,10,01,08,51,7.60
2019,10,01,08,52,7.70
2019,10,01,08,53,7.80
2019,10,01,08,54,7.80
2019,10,01,08,55,7.90
2019,10,01,08,56,8.00
2019,10,01,08,57,8.00
2019,10,01,08,58,8.10
2019,10,01,08,59,8.10
2019,10,01,09,00,8.20
2019,10,01,09,01,8.20
2019,10,01,09,02,8.30
2019,10,01,09,03,8.30
2019,10,01,09,04,8.40
2019,10,01,09,05,8.40
2019,10,01,09,06,8.50
2019,10,01,09,07,8.50
2019,10,01,09,08,8.50
2019,10,01,09,09,8.60
2019,10,01,09,10,8.60
2019,10,01,09,11,8.60
2019,10,01,09,12,8.70
2019,10,01,09,13,8.70
2019,10,01,09,14,8.70
2019,10,01,09,15,8.70
2019,10,01,09,16,8.80
2019,10,01,09,17,8.80
2019,10,01,09,18,8.90
2019,10,01,09,19,8.90
2019,10,01,09,20,9.00
2019,10,01,09,21,9.10
2019,10,01,09,22,9.10
2019,10,01,09,23,9.20
2019,10,01,09,24,9.20
2019,10,01,09,25,9.30
2019,10,01,09,26,9.40
2019,10,01,09,27,9.40
2019,10,01,09,28,9.50
2019,10,01,09,29,9.60
2019,10,01,09,30,9.60
2019,10,01,09,31,9.70
2019,10,01,09,32,9.70
2019,10,01,09,33,9.80
2019,10,01,09,34,9.80
2019,10,01,09,35,9.90
2019,10,01,09,36,10.00
2019,10,01,09,37,10.00
2019,10,01,09,38,10.10
2019,10,01,09,39,10.10
2019,10,01,09,40,10.10
2019,10,01,09,41,10.20
2019,10,01,09,42,10.20
2019,10,01,09,43,10.20
2019,10,01,09,44,10.20
2019,10,01,09,45,10.20
2019,10,01,09,46,10.30
2019,10,01,09,47,10.30
2019,10,01,09,48,10.30
2019,10,01,09,49,10.30
2019,10,01,09,50,10.40
2019,10,01,09,51,10.40
2019,10,01,09,52,10.40
2019,10,01,09,53,10.50
2019,10,01,09,54,10.50
2019,10,01,09,55,10.60
2019,10,01,09,56,10.60
2019,10,01,09,57,10.60
2019,10,01,09,58,10.70
2019,10,01,09,59,10.70
2019,10,01,10,00,10.70
2019,10,01,10,01,10.80
2019,10,01,10,02,10.80
2019,10,01,10,03,10.80
2019,10,01,10,04,10.80
2019,10,01,10,05,10.90
2019,10,01,10,06,10.90
2019,10,01,10,07,10.90
2019,10,01,10,08,11.00
2019,10,01,10,09,11.00
2019,10,01,10,10,11.10
2019,10,01,10,11,11.20
2019,10,01,10,12,11.20
2019,10,01,10,13,11.30
2019,10,01,10,14,11.30
2019,10,01,10,15,11.30
2019,10,01,10,16,11.40
2019,10,01,10,17,11.40
2019,10,01,10,18,11.40
2019,10,01,10,19,11.40
2019,10,01,10,20,11.30
2019,10,01,10,21,11.30
2019,10,01,10,22,11.30
2019,10,01,10,23,11.30
2019,10,01,10,24,11.30
2019,10,01,10,25,11.40
2019,10,01,10,26,11.50
2019,10,01,10,27,11.60
2019,10,01,10,28,11.60
2019,10,01,10,29,11.70
2019,10,01,10,30,11.80
2019,10,01,10,31,11.80
2019,10,01,10,32,11.90
2019,10,01,10,33,11.90
2019,10,01,10,34,11.90
2019,10,01,10,35,11.90
2019,10,01,10,36,11.80
2019,10,01,10,37,11.80
2019,10,01,10,38,11.80
2019,10,01,10,39,11.70
2019,10,01,10,40,11.80
2019,10,01,10,41,11.70
2019,10,01,10,42,11.70
2019,10,01,10,43,11.70
2019,10,01,10,44,11.70
2019,10,01,10,45,11.70
2019,10,01,10,46,11.70
2019,10,01,10,47,11.70
2019,10,01,10,48,11.70
2019,10,01,10,49,11.70
2019,10,01,10,50,11.80
2019,10,01,10,51,11.80
2019,10,01,10,52,11.80
2019,10,01,10,53,11.90
2019,10,01,10,54,12.00
2019,10,01,10,55,12.00
2019,10,01,10,56,12.10
2019,10,01,10,57,12.20
2019,10,01,10,58,12.20
2019,10,01,10,59,12.30
2019,10,01,11,00,12.30
2019,10,01,11,01,12.30
2019,10,01,11,02,12.30
2019,10,01,11,03,12.30
2019,10,01,11,04,12.30
2019,10,01,11,05,12.30
2019,10,01,11,06,12.20
2019,10,01,11,07,12.20
2019,10,01,11,08,12.20
2019,10,01,11,09,12.10
2019,10,01,11,10,12.10
2019,10,01,11,11,12.10
2019,10,01,11,12,12.00
2019,10,01,11,13,12.00
2019,10,01,11,14,11.90
2019,10,01,11,15,11.90
2019,10,01,11,16,11.90
2019,10,01,11,17,11.90
2019,10,01,11,18,11.90
2019,10,01,11,19,12.00
2019,10,01,11,20,12.00
2019,10,01,11,21,12.10
2019,10,01,11,22,12.10
2019,10,01,11,23,12.10
2019,10,01,11,24,12.10
2019,10,01,11,25,12.10
2019,10,01,11,26,12.10
2019,10,01,11,27,12.10
2019,10,01,11,28,12.10
2019,10,01,11,29,12.10
2019,10,01,11,30,12.10
2019,10,01,11,31,12.20
2019,10,01,11,32,12.20
2019,10,01,11,33,12.30
2019,10,01,11,34,12.30
2019,10,01,11,35,12.30
2019,10,01,11,36,12.30
2019,10,01,11,37,12.30
2019,10,01,11,38,12.30
2019,10,01,11,39,12.20
2019,10,01,11,40,12.10
2019,10,01,11,41,12.10
2019,10,01,11,42,12.10
2019,10,01,11,43,12.10
2019,10,01,11,44,12.20
2019,10,01,11,45,12.20
2019,10,01,11,46,12.20
2019,10,01,11,47,12.30
2019,10,01,11,48,12.30
2019,10,01,11,49,12.30
2019,10,01,11,50,12.40
2019,10,01,11,51,12.50
2019,10,01,11,52,12.60
2019,10,01,11,53,12.50
2019,10,01,11,54,12.50
2019,10,01,11,55,12.50
2019,10,01,11,56,12.40
2019,10,01,11,57,12.40
2019,10,01,11,58,12.40
2019,10,01,11,59,12.50
2019,10,01,12,00,12.50
2019,10,01,12,01,12.50
2019,10,01,12,02,12.60
2019,10,01,12,03,12.60
2019,10,01,12,04,12.70
2019,10,01,12,05,12.60
2019,10,01,12,06,12.60
2019,10,01,12,07,12.50
2019,10,01,12,08,12.50
2019,10,01,12,09,12.40
2019,10,01,12,10,12.50
2019,10,01,12,11,12.50
2019,10,01,12,12,12.60
2019,10,01,12,13,12.70
2019,10,01,12,14,12.70
2019,10,01,12,15,12.80
2019,10,01,12,16,12.80
2019,10,01,12,17,12.80
2019,10,01,12,18,12.90
2019,10,01,12,19,12.90
2019,10,01,12,20,13.00
2019,10,01,12,21,13.10
2019,10,01,12,22,13.20
2019,10,01,12,23,13.20
2019,10,01,12,24,13.30
2019,10,01,12,25,13.30
2019,10,01,12,26,13.20
2019,10,01,12,27,13.10
2019,10,01,12,28,13.10
2019,10,01,12,29,13.10
2019,10,01,12,30,13.10
2019,10,01,12,31,13.10
2019,10,01,12,32,13.00
2019,10,01,12,33,13.00
2019,10,01,12,34,12.90
2019,10,01,12,35,12.90
2019,10,01,12,36,12.90
2019,10,01,12,37,12.90
2019,10,01,12,38,12.80
2019,10,01,12,39,12.80
2019,10,01,12,40,12.80
2019,10,01,12,41,12.80
2019,10,01,12,42,12.80
2019,10,01,12,43,12.90
2019,10,01,12,44,12.90
2019,10,01,12,45,13.00
2019,10,01,12,46,13.00
2019,10,01,12,47,13.10
2019,10,01,12,48,13.10
2019,10,01,12,49,13.20
2019,10,01,12,50,13.20
2019,10,01,12,51,13.20
2019,10,01,12,52,13.30
2019,10,01,12,53,13.30
2019,10,01,12,54,13.40
2019,10,01,12,55,13.30
2019,10,01,12,56,13.30
2019,10,01,12,57,13.30
2019,10,01,12,58,13.30
2019,10,01,12,59,13.30
2019,10,01,13,00,13.30
2019,10,01,13,01,13.30
2019,10,01,13,02,13.30
2019,10,01,13,03,13.30
2019,10,01,13,04,13.20
2019,10,01,13,05,13.20
2019,10,01,13,06,13.20
2019,10,01,13,07,13.20
2019,10,01,13,08,13.20
2019,10,01,13,09,13.20
2019,10,01,13,10,13.20
2019,10,01,13,11,13.20
2019,10,01,13,12,13.20
2019,10,01,13,13,13.10
2019,10,01,13,14,13.10
2019,10,01,13,15,13.10
2019,10,01,13,16,13.20
2019,10,01,13,17,13.20
2019,10,01,13,18,13.20
2019,10,01,13,19,13.20
2019,10,01,13,20,13.20
2019,10,01,13,21,13.10
2019,10,01,13,22,13.20
2019,10,01,13,23,13.20
2019,10,01,13,24,13.30
2019,10,01,13,25,13.30
2019,10,01,13,26,13.30
2019,10,01,13,27,13.30
2019,10,01,13,28,13.30
2019,10,01,13,29,13.30
2019,10,01,13,30,13.30
2019,10,01,13,31,13.30
2019,10,01,13,32,13.40
2019,10,01,13,33,13.40
2019,10,01,13,34,13.50
2019,10,01,13,35,13.50
2019,10,01,13,36,13.50
2019,10,01,13,37,13.50
2019,10,01,13,38,13.40
2019,10,01,13,39,13.40
2019,10,01,13,40,13.40
2019,10,01,13,41,13.40
2019,10,01,13,42,13.50
2019,10,01,13,43,13.50
2019,10,01,13,44,13.50
2019,10,01,13,45,13.60
2019,10,01,13,46,13.60
2019,10,01,13,47,13.60
2019,10,01,13,48,13.50
2019,10,01,13,49,13.50
2019,10,01,13,50,13.50
2019,10,01,13,51,13.60
2019,10,01,13,52,13.60
2019,10,01,13,53,13.60
2019,10,01,13,54,13.70
2019,10,01,13,55,13.70
2019,10,01,13,56,13.70
2019,10,01,13,57,13.70
2019,10,01,13,58,13.70
2019,10,01,13,59,13.60
2019,10,01,14,00,13.60
2019,10,01,14,01,13.60
2019,10,01,14,02,13.60
2019,10,01,14,03,13.70
2019,10,01,14,04,13.70
2019,10,01,14,05,13.80
2019,10,01,14,06,13.80
2019,10,01,14,07,13.80
2019,10,01,14,08,13.90
2019,10,01,14,09,13.90
2019,10,01,14,10,13.90
2019,10,01,14,11,13.80
2019,10,01,14,12,13.80
2019,10,01,14,13,13.80
2019,10,01,14,14,13.70
2019,10,01,14,15,13.70
2019,10,01,14,16,13.80
2019,10,01,14,17,13.70
2019,10,01,14,18,13.80
2019,10,01,14,19,13.80
2019,10,01,14,20,13.80
2019,10,01,14,21,13.80
2019,10,01,14,22,13.80
2019,10,01,14,23,13.90
2019,10,01,14,24,13.90
2019,10,01,14,25,13.90
2019,10,01,14,26,13.90
2019,10,01,14,27,13.90
2019,10,01,14,28,13.80
2019,10,01,14,29,13.80
2019,10,01,14,30,13.80
2019,10,01,14,31,13.80
2019,10,01,14,32,13.80
2019,10,01,14,33,13.90
2019,10,01,14,34,13.80
2019,10,01,14,35,13.80
2019,10,01,14,36,13.90
2019,10,01,14,37,13.90
2019,10,01,14,38,13.90
2019,10,01,14,39,13.90
2019,10,01,14,40,13.90
2019,10,01,14,41,13.90
2019,10,01,14,42,14.00
2019,10,01,14,43,14.00
2019,10,01,14,44,14.00
2019,10,01,14,45,14.00
2019,10,01,14,46,13.90
2019,10,01,14,47,13.90
2019,10,01,14,48,13.90
2019,10,01,14,49,13.90
2019,10,01,14,50,13.90
2019,10,01,14,51,13.80
2019,10,01,14,52,13.80
2019,10,01,14,53,13.80
2019,10,01,14,54,13.80
2019,10,01,14,55,13.80
2019,10,01,14,56,13.80
2019,10,01,14,57,13.80
2019,10,01,14,58,13.80
2019,10,01,14,59,13.80
2019,10,01,15,00,13.80
2019,10,01,15,01,13.80
2019,10,01,15,02,13.80
2019,10,01,15,03,13.80
2019,10,01,15,04,13.80
2019,10,01,15,05,13.80
2019,10,01,15,06,13.80
2019,10,01,15,07,13.80
2019,10,01,15,08,13.90
2019,10,01,15,09,13.90
2019,10,01,15,10,13.90
2019,10,01,15,11,13.80
2019,10,01,15,12,13.80
2019,10,01,15,13,13.80
2019,10,01,15,14,13.70
2019,10,01,15,15,13.70
2019,10,01,15,16,13.70
2019,10,01,15,17,13.60
2019,10,01,15,18,13.60
2019,10,01,15,19,13.60
2019,10,01,15,20,13.60
2019,10,01,15,21,13.60
2019,10,01,15,22,13.60
2019,10,01,15,23,13.60
2019,10,01,15,24,13.60
2019,10,01,15,25,13.60
2019,10,01,15,26,13.60
2019,10,01,15,27,13.60
2019,10,01,15,28,13.60
2019,10,01,15,29,13.70
2019,10,01,15,30,13.70
2019,10,01,15,31,13.80
2019,10,01,15,32,13.80
2019,10,01,15,33,13.80
2019,10,01,15,34,13.90
2019,10,01,15,35,13.90
2019,10,01,15,36,13.90
2019,10,01,15,37,13.90
2019,10,01,15,38,13.90
2019,10,01,15,39,13.90
2019,10,01,15,40,13.90
2019,10,01,15,41,14.00
2019,10,01,15,42,14.00
2019,10,01,15,43,14.00
2019,10,01,15,44,13.90
2019,10,01,15,45,13.90
2019,10,01,15,46,13.90
2019,10,01,15,47,13.90
2019,10,01,15,48,13.90
2019,10,01,15,49,13.90
2019,10,01,15,50,13.80
2019,10,01,15,51,13.80
2019,10,01,15,52,13.80
2019,10,01,15,53,13.80
2019,10,01,15,54,13.80
2019,10,01,15,55,13.80
2019,10,01,15,56,13.80
2019,10,01,15,57,13.80
2019,10,01,15,58,13.80
2019,10,01,15,59,13.80
2019,10,01,16,00,13.80
2019,10,01,16,01,13.80
2019,10,01,16,02,13.80
2019,10,01,16,03,13.70
2019,10,01,16,04,13.70
2019,10,01,16,05,13.70
2019,10,01,16,06,13.60
2019,10,01,16,07,13.60
2019,10,01,16,08,13.60
2019,10,01,16,09,13.50
2019,10,01,16,10,13.50
2019,10,01,16,11,13.40
2019,10,01,16,12,13.40
2019,10,01,16,13,13.40
2019,10,01,16,14,13.40
2019,10,01,16,15,13.40
2019,10,01,16,16,13.50
2019,10,01,16,17,13.50
2019,10,01,16,18,13.60
2019,10,01,16,19,13.70
2019,10,01,16,20,13.70
2019,10,01,16,21,13.70
2019,10,01,16,22,13.70
2019,10,01,16,23,13.70
2019,10,01,16,24,13.70
2019,10,01,16,25,13.70
2019,10,01,16,26,13.70
2019,10,01,16,27,13.60
2019,10,01,16,28,13.60
2019,10,01,16,29,13.50
2019,10,01,16,30,13.50
2019,10,01,16,31,13.50
2019,10,01,16,32,13.40
2019,10,01,16,33,13.40
2019,10,01,16,34,13.40
2019,10,01,16,35,13.30
2019,10,01,16,36,13.30
2019,10,01,16,37,13.30
2019,10,01,16,38,13.30
2019,10,01,16,39,13.40
2019,10,01,16,40,13.40
2019,10,01,16,41,13.30
2019,10,01,16,42,13.30
2019,10,01,16,43,13.30
2019,10,01,16,44,13.30
2019,10,01,16,45,13.30
2019,10,01,16,46,13.30
2019,10,01,16,47,13.30
2019,10,01,16,48,13.30
2019,10,01,16,49,13.30
2019,10,01,16,50,13.20
2019,10,01,16,51,13.30
2019,10,01,16,52,13.30
2019,10,01,16,53,13.20
2019,10,01,16,54,13.20
2019,10,01,16,55,13.20
2019,10,01,16,56,13.10
2019,10,01,16,57,13.10
2019,10,01,16,58,13.10
2019,10,01,16,59,13.10
2019,10,01,17,00,13.10
2019,10,01,17,01,13.10
2019,10,01,17,02,13.20
2019,10,01,17,03,13.20
2019,10,01,17,04,13.20
2019,10,01,17,05,13.20
2019,10,01,17,06,13.10
2019,10,01,17,07,13.00
2019,10,01,17,08,13.00
2019,10,01,17,09,13.00
2019,10,01,17,10,12.90
2019,10,01,17,11,12.90
2019,10,01,17,12,12.80
2019,10,01,17,13,12.80
2019,10,01,17,14,12.80
2019,10,01,17,15,12.80
2019,10,01,17,16,12.80
2019,10,01,17,17,12.70
2019,10,01,17,18,12.70
2019,10,01,17,19,12.70
2019,10,01,17,20,12.70
2019,10,01,17,21,12.70
2019,10,01,17,22,12.70
2019,10,01,17,23,12.60
2019,10,01,17,24,12.60
2019,10,01,17,25,12.60
2019,10,01,17,26,12.60
2019,10,01,17,27,12.60
2019,10,01,17,28,12.60
2019,10,01,17,29,12.60
2019,10,01,17,30,12.50
2019,10,01,17,31,12.50
2019,10,01,17,32,12.40
2019,10,01,17,33,12.40
2019,10,01,17,34,12.40
2019,10,01,17,35,12.30
2019,10,01,17,36,12.30
2019,10,01,17,37,12.30
2019,10,01,17,38,12.30
2019,10,01,17,39,12.20
2019,10,01,17,40,12.20
2019,10,01,17,41,12.10
2019,10,01,17,42,12.10
2019,10,01,17,43,12.00
2019,10,01,17,44,12.00